Regional Weather Roundup
Issued by NWS Lake Charles, LA

Home | Current Version | Previous Version | Text Only | Print | Product List | Glossary On
Versions: 1 2 3 4 5 6 7 8 9 10 11 12 13 14 15 16 17 18 19 20 21 22 23 24 25 26 27 28 29 30 31 32 33 34 35 36 37 38 39 40 41 42 43 44 45 46 47 48 49 50
000
ASUS44 KLCH 170610
RWRLCH
RWRLCH
REGIONAL WEATHER ROUNDUP
NATIONAL WEATHER SERVICE LAKE CHARLES LA
100 AM CDT WED SEP 17 2014

Note: "fair" indicates few or no clouds below 12,000 feet with no
significant weather and/or obstructions to visibility.


ACROSS SOUTHEAST TEXAS

CITY           SKY/WX    TMP DP  RH WIND       PRES   REMARKS
BEAUMONT       LGT RAIN  78  76  93 E5        29.99F
BEAUMONT CITY    N/A     75  74  99 CALM      30.00F
ORANGE         CLOUDY   N/A N/A N/A CALM      30.02S
JASPER         MOCLDY    72  70  96 CALM      30.03F FOG
$$

ACROSS CENTRAL LOUISIANA

CITY           SKY/WX    TMP DP  RH WIND       PRES   REMARKS
LEESVILLE      CLOUDY    73  73 100 NW3       29.99F
FULLERTON      CLOUDY    74  71  91 CALM      29.96F FOG
ALEXANDRIA INT PTCLDY    73  71  93 N5        29.98F
ESLER FIELD    CLEAR     72  70  93 CALM      30.00S
DERIDDER       MOCLDY    74  73  95 CALM      30.01F FOG
OAKDALE        FOG       73  72  96 CALM      29.99F VSB 3/4
OPELOUSAS      LGT RAIN  72  71  98 CALM      29.98F
$$

ACROSS SOUTHWEST AND SOUTH CENTRAL LOUISIANA

CITY           SKY/WX    TMP DP  RH WIND       PRES   REMARKS
SULPHUR        CLOUDY    75  75  98 CALM      30.00F
LAKE CHARLES   CLOUDY    76  75  97 CALM      29.99F
CHENNAULT INT  CLOUDY    75  74  95 CALM      30.00F
CAMERON PHI    CLEAR     77  75  94 CALM      30.02F
DEQUINCY       CLOUDY    73  73  98 CALM      30.00F
JENNINGS         N/A     74  73  96 CALM      29.99F
LAFAYETTE      CLOUDY    74  73  97 CALM      29.98F
NEW IBERIA     CLOUDY    74  72  93 SE3       30.00F
ABBEVILLE        N/A     71  71  99 S3        29.99F
PATTERSON      CLOUDY    73  72  94 CALM      30.01F
SALT POINT       N/A     75  73  93 CALM      29.99F
$$

SELECTED SITES ACROSS THE REGION

CITY           SKY/WX    TMP DP  RH WIND       PRES   REMARKS
HOUSTON BUSH   CLOUDY    77  75  93 SE6       29.99F
HOUSTON HOBBY  CLOUDY    77  76  96 CALM      29.99F
GALVESTON      CLOUDY    81  78  91 S9        30.00F
COLLEGE STAT   CLOUDY    76  74  93 CALM      30.00S
CONROE         CLOUDY    75  74  96 CALM      29.99F
HUNTSVILLE     MOCLDY    76  74  93 CALM      29.99F
LUFKIN         FOG       76  73  91 SE3       30.00F VSB 1/4
SHREVEPORT     MOCLDY    76  72  87 S3        30.00F
MONROE         MOCLDY    73  70  90 CALM      30.02F
NATCHEZ MS     PTCLDY    72  70  94 N6        30.02F
BATON ROUGE    CLOUDY    73  72  96 CALM      29.99F
N.O. INTL ARPT CLOUDY    77  72  84 N7        29.98F
SLIDELL        CLOUDY    74  71  91 CALM      29.97F
$$

MARINE REPORTS

STATION/POSITION TIME  TEMP    WIND        PRES    VSBY  WAVE
                       AIR SEA DIR/SP/G                  HT/PER
                 (UTC) (F)     (DEG/KT/KT) (MB)    (MI)  (FT/S)
BUOY 30 S HIGH I 0600   81 84  170/ 10/ 14 1015.0F         2/ 6
SEA RIM ST PARK  0600   77     130/  5/  5 1016.3F
PORT ARTHUR      0600      84  110/  3/  5 1015.9F
SABINE PASS N    0600   77 82  240/  2/  8 1016.1F
TEXAS POINT      0600   76 82  260/  7/ 10 1016.2F
CALCASIEU PASS   0600   78 84   60/  2/  2 1016.8F
LK CHARLES BEACH 0600   77 84              1015.7S
MARSH ISLAND     NOT AVBL
FRESH WATER LOCK 0600   76 83   40/  3/  5 1015.8F
AMERADA PASS     0600   74 84  110/  2/  4 1015.8F
$$


USA.gov is the U.S. government's official web portal to all federal, state and local government web resources and services.